ARIANE 5 DEB (SYLDA), 42743

Orbit data source: Space-Track

ARIANE 5 DEB (SYLDA), 42743 is space debris in HEO originally from a launch on Thu, 01 Jun 2017 UTC launched from the French Guiana (FRGUI). Debris objects in space refer to the collection of defunct objects orbiting the Earth. Examples of debris include non-operational satellites, rocket bodies, and fragments generated from explosions, collisions, or faulty payload assembly.

Loading next visibility...
Identifier
42743, 2017-029D
Orbit
HEO
Country
Flag of FRFR
Related business
Manufacturer
ADS/Bremen
Mission
Spacecraft
Bus & Motor
SYLDA 5, Unknown motor
Mass
440 kg wet, 440 kg dry
Launch date (UTC)
2017-06-01 (9 years ago)
Launch vehicle
Unknown
Launch site
French Guiana (FRGUI)
Object type
Payload
Rocket body
Debris
Shape & HBR
Cyl, 2.8 m
Radar Cross Section
27.391 m², Large (>1 m²)

Expand to show TLE details & history
Last TLE update: 18 hours ago

TLE from 18 hours ago
0 ARIANE 5 DEB (SYLDA)
1 42743U 17029D   25341.09289325  .00030898  00000-0  95165-2 0  9998
2 42743   6.1733 334.8320 6475942 343.8921   2.5628  3.33672991 82345
Epoch: 2025-12-07T02:13Z
TLE epoch observation values (Epoch: 2025-12-07T02:13:45.976Z)
Latitude
0.0003°
Longitude
-134.76368°
Altitude
401.19 km
Speed
9.824 km/s
True Right ascension
22h 19m 09s
True Declination
0° 00' 01"
Sunlit
Object was in daylight at epoch
Visualization orbit readout
Latitude
Unknown
Longitude
Unknown
Altitude
Unknown
Speed
Unknown
Apparent Right ascension
Unknown
Apparent Declination
Unknown
Sunlit
N/A
Visualization observer readout
Local Sidereal Time
18:32:46
Azimuth
Unknown
Elevation
Unknown
Doppler factor
Unknown
Orbital elements
Apogee altitude
24,798.101 km
Perigee altitude
290.184 km
Semi-major axis
18,922.28 km
Eccentricity
0.64759
Inclination
6.1733°
RAAN
334.832°
Arg. of periapsis
343.8921°
True anomaly
15.57231°
Mean anomaly
2.5628°
Eccentric anomaly
7.23696°
Mean motion
0.83384 °/min
Orbital period
431.74 mins
BSTAR
0.0095165
Loading maneuver chart data...
Computing Atmospheric mass density...
Loading historical data...
Loading historical data...
Loading historical data...
Loading historical data...
Loading historical data...
Loading historical data...
Loading historical data...
Other satellites on launch #29 in the year 2017 (2017-06-01 UTC)

Documentation

Showing up to 5 results
|